Location: Blackie
(50.6050°N, 113.6230°W)
Time: 08:47:40
(UTC+00:00)

N. Korean satellite - Pass Details

Date: 08 December 2021
Orbit: 446 x 491 km, 97.3° (Epoch: 18 January)

Event Time Altitude Azimuth Distance (km) Brightness Sun altitude
Rises 13:47:12 0° 3° (N) 2,467 10.0 -14.3°
Reaches altitude 10° 13:49:28 10° 350° (N) 1,587 8.9 -13.9°
Maximum altitude 13:52:18 25° 293° (WNW) 938 7.4 -13.5°
Drops below altitude 10° 13:55:08 10° 236° (SW) 1,576 8.8 -13.1°
Sets 13:57:22 0° 223° (SW) 2,445 9.9 -12.7°
